Location: NCO
(38.4404°N, 77.1340°W)
Time: 08:52:29
(UTC-04:00)

ISS - Visible Passes

Search period start: 22 July 2018 00:00
Search period end: 01 August 2018 00:00
Orbit: 402 x 408 km, 51.6° (Epoch: 22 July)

Date Brightness Start Highest point End Pass type
(mag) Time Alt. Az. Time Alt. Az. Time Alt. Az.
22 Jul -0.6 02:21:49 10° NNW 02:23:46 15° NNE 02:25:45 10° ENE visible
22 Jul -3.7 03:57:26 10° NW 04:00:44 76° NE 04:04:01 10° SE visible
22 Jul -1.0 22:13:33 10° WNW 22:16:06 20° NNW 22:18:39 10° NNE visible
23 Jul -0.2 01:30:16 10° N 01:30:55 11° N 01:30:55 11° N visible
23 Jul -1.8 21:20:49 10° W 21:23:48 32° NNW 21:26:47 10° NE visible
23 Jul -0.2 23:00:37 10° NNW 23:01:06 10° NNW 23:01:35 10° N visible
24 Jul -0.6 22:07:01 10° NW 22:08:38 13° NNW 22:10:16 10° NNE visible
25 Jul -0.8 21:13:53 10° WNW 21:16:13 18° NNW 21:18:33 10° NNE visible
26 Jul -0.3 00:30:05 10° N 00:30:30 11° N 00:30:30 11° N visible
27 Jul -0.6 21:07:26 10° NW 21:08:43 12° NNW 21:10:02 10° N visible
28 Jul -0.3 00:21:35 10° NNW 00:21:50 11° NNW 00:21:50 11° NNW visible
28 Jul -0.8 23:29:49 10° NNW 23:31:14 13° NNE 23:31:14 13° NNE visible
29 Jul -0.7 22:38:20 10° N 22:39:02 10° NNE 22:39:44 10° NNE visible
30 Jul -0.2 00:13:16 10° NW 00:13:18 10° NW 00:13:18 10° NW visible
30 Jul -1.0 23:21:19 10° NNW 23:22:46 18° N 23:22:46 18° N visible
31 Jul -1.3 22:29:28 10° NNW 22:31:28 15° NNE 22:32:14 14° NE visible
